Location: Hokitika
(42.7170°S, 170.9670°E)
Time: 10:13:13
(UTC+12:00)

CZ-2C R/B - Pass Details

Date: 24 January 2019
Orbit: 784 x 871 km, 98.3° (Epoch: 18 April)

Event Time Altitude Azimuth Distance (km) Brightness Sun altitude
Exits shadow 23:30:07 - 330° (NNW) 2,575 5.0 -20.4°
Reaches altitude 10° 23:30:29 10° 328° (NNW) 2,463 4.9 -20.4°
Maximum altitude 23:34:54 25° 274° (W) 1,638 4.5 -20.9°
Drops below altitude 10° 23:39:18 10° 219° (SW) 2,442 6.3 -21.3°
Sets 23:42:05 0° 206° (SSW) 3,368 7.3 -21.6°
